Terminal Aerodrome Forecast
Issued by NWS Atlanta, GA

Home | Current Version | Previous Version | Text Only | Print | Product List | Glossary On
Versions: 1 2 3 4 5 6 7 8 9 10 11 12 13 14 15 16 17
272
FTUS42 KFFC 261720
TAFCSG
TAF
KCSG 261720Z 2618/2718 04005KT P6SM SKC
     FM262000 12004KT P6SM SKC
     FM270600 08003KT P6SM BKN250
     FM270900 11004KT P6SM BKN120=

USA.gov is the U.S. government's official web portal to all federal, state and local government web resources and services.